When you browse on this site, cookies collect data to enhance your experience and personalize the content and advertising you see.
Visit our Privacy Policy to learn more. By continuing to use the site, you agree to this use of cookies and data.
  • In Österreich
  • Länderverzeichnis
  • Für 7 Tage
  • Wassertemperatur
  • Satellitenkarten
  • Wetterkarte
  • News
  • Widgets
  • user-avatar
    Anmelden

    Stündliche Wetter Dakka

    Heute, 26 Juni, Mittwoch

    Zeit Temperatur Niederschläge Wind Luftdruck Luftfeuchtigkeit
    00:00 +33°C° 0 mm 3 m/S 751 mmHg 75%
    01:00 +32°C° 0 mm 4 m/S 751 mmHg 76%
    02:00 +32°C° 0 mm 4 m/S 750 mmHg 77%
    03:00 +32°C° 0 mm 5 m/S 750 mmHg 77%
    04:00 +32°C° 0 mm 5 m/S 750 mmHg 79%
    05:00 +32°C° 0 mm 5 m/S 751 mmHg 81%
    06:00 +32°C° 0 mm 4 m/S 751 mmHg 81%
    07:00 +33°C° 0 mm 5 m/S 751 mmHg 76%
    08:00 +34°C° 0 mm 5 m/S 751 mmHg 70%
    09:00 +35°C° 0 mm 6 m/S 751 mmHg 64%
    10:00 +38°C° 0 mm 6 m/S 751 mmHg 59%
    11:00 +39°C° 0 mm 6 m/S 751 mmHg 55%
    12:00 +40°C° 0 mm 6 m/S 750 mmHg 51%
    13:00 +40°C° 0.2 mm 6 m/S 750 mmHg 49%
    14:00 +41°C° 0.2 mm 6 m/S 749 mmHg 48%
    15:00 +41°C° 0.2 mm 6 m/S 748 mmHg 46%
    16:00 +40°C° 0 mm 6 m/S 748 mmHg 49%
    17:00 +39°C° 0 mm 5 m/S 748 mmHg 52%
    18:00 +37°C° 0 mm 5 m/S 748 mmHg 55%
    19:00 +36°C° 0 mm 5 m/S 748 mmHg 58%
    20:00 +35°C° 0 mm 6 m/S 749 mmHg 61%
    21:00 +34°C° 0 mm 7 m/S 750 mmHg 65%
    22:00 +34°C° 0 mm 7 m/S 750 mmHg 68%
    23:00 +33°C° 0 mm 6 m/S 750 mmHg 71%

    Morgen, 27 Juni, Donnerstag

    Zeit Temperatur Niederschläge Wind Luftdruck Luftfeuchtigkeit
    00:00 +33°C° 0 mm 6 m/S 750 mmHg 74%
    01:00 +32°C° 0 mm 6 m/S 749 mmHg 75%
    02:00 +32°C° 0 mm 6 m/S 749 mmHg 76%
    03:00 +32°C° 0 mm 6 m/S 748 mmHg 77%
    04:00 +32°C° 0 mm 6 m/S 748 mmHg 78%
    05:00 +32°C° 0 mm 6 m/S 748 mmHg 78%
    06:00 +32°C° 0 mm 6 m/S 748 mmHg 78%
    07:00 +33°C° 0 mm 7 m/S 748 mmHg 74%
    08:00 +34°C° 0 mm 7 m/S 749 mmHg 70%
    09:00 +35°C° 0 mm 7 m/S 749 mmHg 66%
    10:00 +36°C° 0 mm 7 m/S 749 mmHg 63%
    11:00 +36°C° 0 mm 6 m/S 748 mmHg 60%
    12:00 +37°C° 0 mm 5 m/S 748 mmHg 56%
    13:00 +39°C° 0.3 mm 6 m/S 747 mmHg 55%
    14:00 +39°C° 0.3 mm 6 m/S 746 mmHg 53%
    15:00 +40°C° 0.3 mm 6 m/S 745 mmHg 52%
    16:00 +38°C° 0.4 mm 6 m/S 745 mmHg 56%
    17:00 +36°C° 0.4 mm 6 m/S 745 mmHg 61%
    18:00 +35°C° 0.4 mm 6 m/S 745 mmHg 66%
    19:00 +34°C° 1.4 mm 6 m/S 745 mmHg 70%
    20:00 +33°C° 1.4 mm 6 m/S 746 mmHg 75%
    21:00 +32°C° 1.4 mm 6 m/S 746 mmHg 79%
    22:00 +32°C° 4 mm 6 m/S 747 mmHg 82%
    23:00 +30°C° 4 mm 5 m/S 747 mmHg 85%

    übermorgen, 28 Juni, Freitag

    Zeit Temperatur Niederschläge Wind Luftdruck Luftfeuchtigkeit
    00:00 +30°C° 4 mm 5 m/S 747 mmHg 88%
    01:00 +30°C° 7.9 mm 6 m/S 747 mmHg 88%
    02:00 +30°C° 7.9 mm 6 m/S 747 mmHg 89%
    03:00 +29°C° 7.9 mm 6 m/S 747 mmHg 89%
    04:00 +30°C° 2.2 mm 6 m/S 747 mmHg 89%
    05:00 +30°C° 2.2 mm 5 m/S 747 mmHg 88%
    06:00 +30°C° 2.2 mm 4 m/S 747 mmHg 87%
    07:00 +30°C° 8.7 mm 4 m/S 747 mmHg 88%
    08:00 +30°C° 8.7 mm 4 m/S 748 mmHg 89%
    09:00 +29°C° 8.7 mm 4 m/S 748 mmHg 90%
    10:00 +29°C° 5.4 mm 5 m/S 748 mmHg 89%
    11:00 +30°C° 5.4 mm 6 m/S 747 mmHg 87%
    12:00 +30°C° 5.4 mm 7 m/S 747 mmHg 86%
    13:00 +30°C° 0.9 mm 7 m/S 747 mmHg 84%
    14:00 +30°C° 0.9 mm 6 m/S 746 mmHg 81%
    15:00 +30°C° 0.9 mm 5 m/S 746 mmHg 78%
    16:00 +30°C° 0.2 mm 5 m/S 746 mmHg 78%
    17:00 +30°C° 0.2 mm 4 m/S 745 mmHg 79%
    18:00 +30°C° 0.2 mm 4 m/S 745 mmHg 79%
    19:00 +30°C° 0 mm 4 m/S 746 mmHg 82%
    20:00 +29°C° 0 mm 4 m/S 746 mmHg 84%
    21:00 +29°C° 0 mm 4 m/S 747 mmHg 87%
    22:00 +29°C° 0 mm 4 m/S 747 mmHg 87%
    23:00 +29°C° 0 mm 4 m/S 747 mmHg 86%

    29 Juni, Samstag

    Zeit Temperatur Niederschläge Wind Luftdruck Luftfeuchtigkeit
    00:00 +29°C° 0 mm 4 m/S 747 mmHg 86%
    01:00 +29°C° 0 mm 4 m/S 747 mmHg 87%
    02:00 +29°C° 0 mm 3 m/S 747 mmHg 89%
    03:00 +29°C° 0 mm 3 m/S 746 mmHg 90%
    04:00 +29°C° 0 mm 3 m/S 747 mmHg 90%
    05:00 +29°C° 0 mm 3 m/S 747 mmHg 90%
    06:00 +30°C° 0 mm 3 m/S 747 mmHg 90%
    07:00 +32°C° 0.6 mm 4 m/S 747 mmHg 82%
    08:00 +34°C° 0.6 mm 4 m/S 747 mmHg 74%
    09:00 +35°C° 0.6 mm 5 m/S 747 mmHg 66%
    10:00 +36°C° 0 mm 5 m/S 747 mmHg 62%
    11:00 +39°C° 0 mm 5 m/S 747 mmHg 58%
    12:00 +40°C° 0 mm 5 m/S 746 mmHg 55%
    13:00 +40°C° 0 mm 5 m/S 746 mmHg 54%
    14:00 +40°C° 0 mm 5 m/S 745 mmHg 54%
    15:00 +40°C° 0 mm 5 m/S 744 mmHg 54%
    16:00 +39°C° 0 mm 5 m/S 744 mmHg 58%
    17:00 +37°C° 0 mm 5 m/S 744 mmHg 62%
    18:00 +36°C° 0 mm 5 m/S 744 mmHg 66%
    19:00 +35°C° 0.2 mm 5 m/S 745 mmHg 68%
    20:00 +34°C° 0.2 mm 5 m/S 745 mmHg 71%
    21:00 +33°C° 0.2 mm 5 m/S 746 mmHg 74%
    22:00 +32°C° 0.1 mm 5 m/S 746 mmHg 79%
    23:00 +32°C° 0.1 mm 4 m/S 746 mmHg 81%

    30 Juni, Sonntag

    Zeit Temperatur Niederschläge Wind Luftdruck Luftfeuchtigkeit
    00:00 +31°C° 0.1 mm 3 m/S 746 mmHg 83%
    01:00 +30°C° 0 mm 3 m/S 746 mmHg 83%
    02:00 +30°C° 0 mm 3 m/S 746 mmHg 84%
    03:00 +30°C° 0 mm 2 m/S 746 mmHg 85%
    04:00 +30°C° 0 mm 2 m/S 746 mmHg 85%
    05:00 +30°C° 0 mm 2 m/S 746 mmHg 86%
    06:00 +30°C° 0 mm 2 m/S 746 mmHg 86%
    07:00 +31°C° 0.1 mm 2 m/S 746 mmHg 81%
    08:00 +34°C° 0.1 mm 3 m/S 747 mmHg 75%
    09:00 +35°C° 0.1 mm 3 m/S 747 mmHg 70%
    10:00 +36°C° 0.1 mm 3 m/S 746 mmHg 64%
    11:00 +38°C° 0.1 mm 3 m/S 746 mmHg 57%
    12:00 +39°C° 0.1 mm 2 m/S 745 mmHg 51%
    13:00 +39°C° 0 mm 2 m/S 744 mmHg 49%
    14:00 +40°C° 0 mm 2 m/S 744 mmHg 48%
    15:00 +40°C° 0 mm 2 m/S 743 mmHg 46%
    16:00 +40°C° 0 mm 2 m/S 743 mmHg 48%
    17:00 +39°C° 0 mm 2 m/S 743 mmHg 51%
    18:00 +39°C° 0 mm 2 m/S 742 mmHg 53%
    19:00 +37°C° 0 mm 3 m/S 743 mmHg 59%
    20:00 +36°C° 0 mm 4 m/S 744 mmHg 64%
    21:00 +35°C° 0 mm 5 m/S 744 mmHg 69%
    22:00 +34°C° 0.3 mm 4 m/S 745 mmHg 72%
    23:00 +34°C° 0.3 mm 4 m/S 745 mmHg 75%

    1 Juli, Montag

    Zeit Temperatur Niederschläge Wind Luftdruck Luftfeuchtigkeit
    00:00 +33°C° 0.3 mm 4 m/S 745 mmHg 78%
    01:00 +33°C° 0.8 mm 4 m/S 745 mmHg 79%
    02:00 +31°C° 0.8 mm 3 m/S 745 mmHg 81%
    03:00 +31°C° 0.8 mm 3 m/S 745 mmHg 82%
    04:00 +31°C° 0.3 mm 3 m/S 745 mmHg 83%
    05:00 +31°C° 0.3 mm 2 m/S 745 mmHg 83%
    06:00 +31°C° 0.3 mm 2 m/S 745 mmHg 83%
    07:00 +32°C° 1.1 mm 2 m/S 746 mmHg 78%
    08:00 +34°C° 1.1 mm 2 m/S 746 mmHg 72%
    09:00 +35°C° 1.1 mm 2 m/S 746 mmHg 66%
    10:00 +36°C° 1.4 mm 2 m/S 746 mmHg 63%
    11:00 +37°C° 1.4 mm 3 m/S 746 mmHg 60%
    12:00 +38°C° 1.4 mm 3 m/S 745 mmHg 57%
    13:00 +38°C° 0.7 mm 3 m/S 744 mmHg 56%
    14:00 +38°C° 0.7 mm 3 m/S 744 mmHg 55%
    15:00 +38°C° 0.7 mm 3 m/S 743 mmHg 54%
    16:00 +37°C° 1.1 mm 3 m/S 743 mmHg 59%
    17:00 +36°C° 1.1 mm 4 m/S 743 mmHg 64%
    18:00 +35°C° 1.1 mm 4 m/S 743 mmHg 68%
    19:00 +34°C° 0.4 mm 4 m/S 744 mmHg 72%
    20:00 +33°C° 0.4 mm 4 m/S 744 mmHg 75%
    21:00 +32°C° 0.4 mm 4 m/S 745 mmHg 79%
    22:00 +32°C° 0.1 mm 4 m/S 745 mmHg 81%
    23:00 +30°C° 0.1 mm 4 m/S 745 mmHg 82%
    Mehr zeigen